Estación de Codegua

Ultimos registro cada 15 minutos 62
Estación Fecha / Hora Temperatura Humedad Lluvia Velocidad Dirección Radiación Presion
62 Codegua 04-05-2026 15:15 16,1 59,6 0 0 355 91,9 956,4
61 Codegua 04-05-2026 15:00 16,4 58,5 0 0 355 83,1 956,5
60 Codegua 04-05-2026 14:45 16,1 56,2 0 0 355 93,1 956,6
59 Codegua 04-05-2026 14:30 15,8 62,2 0 0 355 88,1 956,9
58 Codegua 04-05-2026 14:15 15,6 64,2 0 0 355 88,1 957,2
57 Codegua 04-05-2026 14:00 15,6 65,3 0 0 355 85,6 957,3
56 Codegua 04-05-2026 13:45 15,4 63,5 0 0 355 80,6 957,3
55 Codegua 04-05-2026 13:30 15,6 63,9 0 0 355 95,6 957,4
54 Codegua 04-05-2026 13:15 15,3 63,7 0 0 355 78,1 957,5
53 Codegua 04-05-2026 13:00 15,3 64,5 0 0 355 73,1 957,8
52 Codegua 04-05-2026 12:45 15,1 65,6 0 0 355 71,9 957,8
51 Codegua 04-05-2026 12:30 14,7 69,7 0 0 355 78,1 957,9
50 Codegua 04-05-2026 12:15 14,7 70,1 0 0 355 58,1 957,9
49 Codegua 04-05-2026 12:00 14,6 68,8 0 0 355 59,4 957,8
48 Codegua 04-05-2026 11:45 14,6 69,2 0 0 355 65,6 957,9
47 Codegua 04-05-2026 11:30 14,8 73,5 0 0 355 61,9 957,9
46 Codegua 04-05-2026 11:15 14,7 70,7 0 0 355 61,9 958
45 Codegua 04-05-2026 11:00 14,1 68,6 0 0 355 68,1 958,1
44 Codegua 04-05-2026 10:45 13,8 75,5 0 0 355 70,6 957,9
43 Codegua 04-05-2026 10:30 13,4 85,2 0 0 355 71,9 957,8
42 Codegua 04-05-2026 10:15 12,9 80,7 0 0 355 60,6 957,6
41 Codegua 04-05-2026 10:00 11,9 90,3 0 0 355 54,4 957,6
40 Codegua 04-05-2026 09:45 11,5 90,4 0 0 355 49,4 957,5
39 Codegua 04-05-2026 09:30 11,4 88,2 0 0 152 35,6 957,7
38 Codegua 04-05-2026 09:15 11,9 81,8 0 0 164 25,6 957,7
37 Codegua 04-05-2026 09:00 11,4 83 0 0 164 20,6 957,6
36 Codegua 04-05-2026 08:45 11,1 82,5 0 0 164 16,9 957,6
35 Codegua 04-05-2026 08:30 10,9 83,7 0 0 164 11,9 957,6
34 Codegua 04-05-2026 08:15 10,8 82,9 0 0 164 8,1 957,6
33 Codegua 04-05-2026 08:00 11 83,5 0 0 164 5,6 957,5
32 Codegua 04-05-2026 07:45 11,1 81,8 0 0 164 1,9 957,5
31 Codegua 04-05-2026 07:30 10,6 83,7 0 0 164 0,6 957,5
30 Codegua 04-05-2026 07:15 10,5 84 0 0 164 0,6 957,3
29 Codegua 04-05-2026 07:00 10,6 83,2 0 0 164 0,6 957,1
28 Codegua 04-05-2026 06:45 10,8 80,7 0 0 164 0,6 957,2
27 Codegua 04-05-2026 06:30 10,8 79,6 0 0 164 0,6 957,2
26 Codegua 04-05-2026 06:15 11 79,5 0 0 164 0,6 957,1
25 Codegua 04-05-2026 06:00 10,8 78,5 0 0 164 0,6 957
24 Codegua 04-05-2026 05:45 10,9 77,4 0 0 164 0,6 957,2
23 Codegua 04-05-2026 05:30 11,1 75,1 0 0 164 0,6 957,2
22 Codegua 04-05-2026 05:15 11,1 77,3 0 0 164 0,6 957,2
21 Codegua 04-05-2026 05:00 11,4 74,4 0 0 164 0,6 957,3
20 Codegua 04-05-2026 04:45 11,8 74,5 0 0 168 0,6 957,2
19 Codegua 04-05-2026 04:30 11 79,5 0 0 170 0,6 956,9
18 Codegua 04-05-2026 04:15 11,4 76,7 0 0 170 0,6 956,9
17 Codegua 04-05-2026 04:00 11,4 75,4 0 0 170 0,6 957
16 Codegua 04-05-2026 03:45 11 78,6 0 0 170 0,6 956,9
15 Codegua 04-05-2026 03:30 10,9 79,1 0 0 170 0,6 957,2
14 Codegua 04-05-2026 03:15 10,8 79,2 0 0 170 0,6 957,3
13 Codegua 04-05-2026 03:00 11,1 79,2 0 0 170 0,6 957,7
12 Codegua 04-05-2026 02:45 11,4 76,3 0 0 170 0,6 957,9
11 Codegua 04-05-2026 02:30 11,3 75,1 0 0 170 0,6 957,8
10 Codegua 04-05-2026 02:15 11,3 78,9 0 0 170 0,6 957,8
9 Codegua 04-05-2026 02:00 11,4 77,2 0 0 170 0,6 958
8 Codegua 04-05-2026 01:45 11,4 78,3 0 0 170 0,6 958,1
7 Codegua 04-05-2026 01:30 11,5 77,3 0 0 170 0,6 958,4
6 Codegua 04-05-2026 01:15 11,7 75,2 0 0 170 0,6 958,6
5 Codegua 04-05-2026 01:00 12,1 75 0 0 170 0,6 959
4 Codegua 04-05-2026 00:45 11,8 73,9 0 0 170 0,6 959,2
3 Codegua 04-05-2026 00:30 11,9 77 0 0 170 0,6 959,2
2 Codegua 04-05-2026 00:15 12 76 0 0 170 0,6 958,9
1 Codegua 04-05-2026 00:00 11,8 76 0 0 170 0,6 959,1